Change the Weather History Date:

Saturday, July 6, 2013

  Actual Average (KNHK) Record (KNHK)
Temperature  
Mean Temperature 82 °F -  
Max Temperature 89 °F 84 °F 100 °F (1999)
Min Temperature 75 °F 67 °F 57 °F (1979)
Cooling Degree Days 17    
Growing Degree Days 32 (Base 50)    
Moisture  
Dew Point 70 °F    
Average Humidity 68    
Maximum Humidity 89    
Minimum Humidity 52    
Precipitation  
Precipitation 0.00 in - - ()
Sea Level Pressure  
Sea Level Pressure 30.18 in    
Wind  
Wind Speed 5 mph (SW)    
Max Wind Speed 12 mph    
Max Gust Speed 17 mph    
Visibility 10 miles    
Events      
Averages and records for this station are not official NWS values.
T = Trace of Precipitation, MM = Missing Value Source: NWS Daily Summary

Daily Weather History Graph

Daily Weather History Graph

Search for Another Location

Airport or City:

Trip Planner

Search our weather history database for the weather conditions in past years. The results will help you decide how hot, cold, wet, or windy it might be!

Date:

Astronomy

Jul. 06, 2013 Rise Set
Actual Time 5:49 AM EDT 8:32 PM EDT
Civil Twilight 5:17 AM EDT 9:03 PM EDT
Nautical Twilight 4:38 AM EDT 9:43 PM EDT
Astronomical Twilight 3:54 AM EDT 10:27 PM EDT
Moon 4:32 AM EDT (7/6) 7:13 PM EDT (7/6)
Length of Visible Light 15h 46m
Length of Day
14h 43m
Waning Crescent, 2% of the Moon is Illuminated
Jul 6
Waning Crescent
Jul 8
New
Jul 15
First Quarter
Jul 22
Full
Jul 29
Last Quarter

Hourly Weather History & Observations

Time (EDT) Temp. Heat Index Dew Point Humidity Pressure Visibility Wind Dir Wind Speed Gust Speed Precip Events Conditions
12:18 AM 77.0 °F - 71.6 °F 83% 30.21 in 10.0 mi Calm Calm - N/A   Clear
12:38 AM 77.0 °F - 71.6 °F 83% 30.21 in 10.0 mi South 3.5 mph - N/A   Clear
12:58 AM 77.0 °F - 71.6 °F 83% 30.21 in 10.0 mi Calm Calm - N/A   Clear
1:18 AM 77.0 °F - 71.6 °F 83% 30.21 in 10.0 mi Calm Calm - N/A   Clear
1:38 AM 77.0 °F - 71.6 °F 83% 30.21 in 10.0 mi Calm Calm - N/A   Clear
1:58 AM 77.0 °F - 71.6 °F 83% 30.21 in 10.0 mi SSW 3.5 mph - N/A   Clear
2:18 AM 77.0 °F - 71.6 °F 83% 30.20 in 10.0 mi SSW 4.6 mph - N/A   Clear
2:38 AM 77.0 °F - 71.6 °F 83% 30.20 in 10.0 mi SSW 4.6 mph - N/A   Clear
2:58 AM 77.0 °F - 71.6 °F 83% 30.19 in 10.0 mi SSW 6.9 mph - N/A   Scattered Clouds
3:18 AM 77.0 °F - 71.6 °F 83% 30.20 in 10.0 mi SW 5.8 mph - N/A   Clear
3:38 AM 77.0 °F - 71.6 °F 83% 30.20 in 10.0 mi SSW 5.8 mph - N/A   Clear
3:59 AM 77.0 °F - 71.6 °F 83% 30.20 in 10.0 mi SW 5.8 mph - N/A   Clear
4:19 AM 77.0 °F - 71.6 °F 83% 30.20 in 10.0 mi SW 4.6 mph - N/A   Clear
4:39 AM 77.0 °F - 71.6 °F 83% 30.20 in 10.0 mi SW 4.6 mph - N/A   Clear
4:59 AM 77.0 °F - 71.6 °F 83% 30.20 in 10.0 mi SW 6.9 mph - N/A   Clear
5:19 AM 77.0 °F - 71.6 °F 83% 30.21 in 10.0 mi SSW 5.8 mph - N/A   Clear
5:39 AM 77.0 °F - 71.6 °F 83% 30.21 in 10.0 mi SW 6.9 mph - N/A   Clear
5:59 AM 75.2 °F - 71.6 °F 89% 30.21 in 10.0 mi SW 8.1 mph - N/A   Clear
6:19 AM 75.2 °F - 71.6 °F 89% 30.21 in 10.0 mi SW 5.8 mph - N/A   Clear
6:39 AM 77.0 °F - 71.6 °F 83% 30.22 in 10.0 mi SW 6.9 mph - N/A   Clear
6:59 AM 77.0 °F - 71.6 °F 83% 30.22 in 10.0 mi SW 6.9 mph - N/A   Clear
7:19 AM 77.0 °F - 71.6 °F 83% 30.22 in 10.0 mi SSW 6.9 mph - N/A   Clear
7:39 AM 78.8 °F - 71.6 °F 78% 30.22 in 10.0 mi SW 5.8 mph - N/A   Clear
7:59 AM 78.8 °F - 71.6 °F 78% 30.22 in 10.0 mi SW 8.1 mph - N/A   Clear
8:19 AM 78.8 °F - 69.8 °F 74% 30.23 in 10.0 mi SW 8.1 mph - N/A   Clear
8:39 AM 80.6 °F 84.6 °F 71.6 °F 74% 30.23 in 10.0 mi SW 8.1 mph - N/A   Clear
8:59 AM 80.6 °F 84.6 °F 71.6 °F 74% 30.22 in 10.0 mi WSW 6.9 mph - N/A   Clear
9:19 AM 80.6 °F 84.6 °F 71.6 °F 74% 30.22 in 10.0 mi SW 9.2 mph - N/A   Clear
9:39 AM 82.4 °F 86.3 °F 69.8 °F 66% 30.22 in 10.0 mi WSW 9.2 mph 16.1 mph N/A   Clear
9:59 AM 82.4 °F 86.3 °F 69.8 °F 66% 30.22 in 10.0 mi WSW 9.2 mph - N/A   Clear
10:19 AM 82.4 °F 87.2 °F 71.6 °F 70% 30.22 in 10.0 mi SW 11.5 mph - N/A   Clear
10:39 AM 84.2 °F 88.4 °F 69.8 °F 62% 30.22 in 10.0 mi WSW 9.2 mph - N/A   Clear
10:59 AM 86.0 °F 91.8 °F 71.6 °F 62% 30.22 in 10.0 mi WSW 10.4 mph - N/A   Clear
11:19 AM 86.0 °F 90.4 °F 69.8 °F 58% 30.21 in 10.0 mi SW 8.1 mph - N/A   Clear
11:39 AM 86.0 °F 90.4 °F 69.8 °F 58% 30.21 in 10.0 mi WSW 9.2 mph - N/A   Clear
11:59 AM 86.0 °F 90.4 °F 69.8 °F 58% 30.21 in 10.0 mi SW 9.2 mph - N/A   Clear
12:20 PM 86.0 °F 90.4 °F 69.8 °F 58% 30.20 in 10.0 mi WSW 9.2 mph - N/A   Clear
12:40 PM 86.0 °F 90.4 °F 69.8 °F 58% 30.20 in 10.0 mi SW 6.9 mph - N/A   Scattered Clouds
1:00 PM 86.0 °F 90.4 °F 69.8 °F 58% 30.19 in 10.0 mi SSW 8.1 mph - N/A   Scattered Clouds
1:20 PM 87.8 °F 92.6 °F 69.8 °F 55% 30.19 in 10.0 mi SW 10.4 mph 16.1 mph N/A   Scattered Clouds
1:40 PM 87.8 °F 92.6 °F 69.8 °F 55% 30.18 in 10.0 mi SSW 9.2 mph - N/A   Scattered Clouds
2:00 PM 87.8 °F 92.6 °F 69.8 °F 55% 30.18 in 10.0 mi South 11.5 mph - N/A   Mostly Cloudy
2:20 PM 87.8 °F 92.6 °F 69.8 °F 55% 30.17 in 10.0 mi SSW 9.2 mph - N/A   Mostly Cloudy
2:40 PM 89.6 °F 94.7 °F 69.8 °F 52% 30.17 in 10.0 mi SSW 9.2 mph - N/A   Scattered Clouds
3:00 PM 89.6 °F 94.7 °F 69.8 °F 52% 30.16 in 10.0 mi SW 9.2 mph 17.3 mph N/A   Scattered Clouds
3:20 PM 89.6 °F 94.7 °F 69.8 °F 52% 30.16 in 10.0 mi SSW 9.2 mph - N/A   Scattered Clouds
3:40 PM 89.6 °F 94.7 °F 69.8 °F 52% 30.15 in 10.0 mi SW 9.2 mph - N/A   Scattered Clouds
4:00 PM 87.8 °F 92.6 °F 69.8 °F 55% 30.14 in 10.0 mi SW 10.4 mph - N/A   Mostly Cloudy
4:20 PM 89.6 °F 94.7 °F 69.8 °F 52% 30.14 in 10.0 mi SW 8.1 mph - N/A   Scattered Clouds
4:40 PM 87.8 °F 91.4 °F 68.0 °F 52% 30.14 in 10.0 mi SW 9.2 mph - N/A   Scattered Clouds
5:00 PM 87.8 °F 91.4 °F 68.0 °F 52% 30.13 in 10.0 mi SW 9.2 mph - N/A   Clear
5:20 PM 87.8 °F 91.4 °F 68.0 °F 52% 30.13 in 10.0 mi SW 10.4 mph - N/A   Clear
5:40 PM 87.8 °F 91.4 °F 68.0 °F 52% 30.13 in 10.0 mi SW 9.2 mph 16.1 mph N/A   Clear
6:00 PM 87.8 °F 91.4 °F 68.0 °F 52% 30.12 in 10.0 mi SSW 9.2 mph - N/A   Clear
6:20 PM 87.8 °F 91.4 °F 68.0 °F 52% 30.12 in 10.0 mi SW 9.2 mph - N/A   Clear
6:40 PM 87.8 °F 91.4 °F 68.0 °F 52% 30.12 in 10.0 mi SW 5.8 mph - N/A   Clear
7:00 PM 86.0 °F 89.4 °F 68.0 °F 55% 30.12 in 10.0 mi SSW 9.2 mph - N/A   Clear
7:20 PM 86.0 °F 89.4 °F 68.0 °F 55% 30.12 in 10.0 mi SSW 4.6 mph - N/A   Clear
7:40 PM 86.0 °F 89.4 °F 68.0 °F 55% 30.12 in 10.0 mi SSW 4.6 mph - N/A   Clear
8:00 PM 82.4 °F 85.4 °F 68.0 °F 62% 30.12 in 10.0 mi SSW 4.6 mph - N/A   Clear
8:20 PM 82.4 °F 86.3 °F 69.8 °F 66% 30.12 in 10.0 mi South 3.5 mph - N/A   Clear
8:40 PM 80.6 °F 83.2 °F 68.0 °F 65% 30.12 in 10.0 mi South 3.5 mph - N/A   Clear
9:01 PM 80.6 °F 83.2 °F 68.0 °F 65% 30.13 in 10.0 mi Calm Calm - N/A   Clear
9:21 PM 78.8 °F - 68.0 °F 69% 30.14 in 10.0 mi SSW 3.5 mph - N/A   Clear
9:41 PM 78.8 °F - 68.0 °F 69% 30.14 in 10.0 mi South 3.5 mph - N/A   Clear
10:01 PM 78.8 °F - 68.0 °F 69% 30.15 in 10.0 mi SSW 3.5 mph - N/A   Clear
10:21 PM 78.8 °F - 68.0 °F 69% 30.15 in 10.0 mi Calm Calm - N/A   Clear
10:41 PM 78.8 °F - 68.0 °F 69% 30.15 in 10.0 mi SSW 3.5 mph - N/A   Clear
11:01 PM 78.8 °F - 68.0 °F 69% 30.16 in 10.0 mi SSW 3.5 mph - N/A   Clear
11:21 PM 78.8 °F - 68.0 °F 69% 30.16 in 10.0 mi SSW 3.5 mph - N/A   Clear
11:41 PM 78.8 °F - 68.0 °F 69% 30.15 in 10.0 mi SW 4.6 mph - N/A   Clear